AQI (49)

Current Conditions for Foresthill, CA. Clear skies, Dry   
Visibility: 10 miles
Space WX Alerts: CONTINUED ALERT:  Electron 2MeV Integral Flux exceeded 1000pfu ( Latest Alert ) - Issue Time: 2019 Aug 17 1350 UTC

  Summary / Temperature 

Current Temperature
64.0°F
17.8°C
(24/hr Ago)
67.0°F
(Apparent temp)
63.7°F
Comfortable
Wind Chill Graphs
64.1°F 

66.6°F/ 19.2°C
 --- Virtual Temp: 66.9°F ---

 Temp Rate:

 24/hr Difference:

 Avg Running Temp:

 Todays High:

 Todays Low:

 Y-days High:

 Y-days Low:

 Todays WChill:

 Y-days WChill:

 Evapotranspiration:

-0.3°F/hr 

-3°F

64.4°F

65.2°F 12:00am

63.8°F 1:33am

85.5°F 2:23pm

65.2°F 11:33pm

62.8°F 5:43am

65.2°F 11:33pm

0.005 in

115' Above Ground

 Temperature:

 6'AGL VRS 115'AGL:

 Avg Running Temp:

 Humidity:

 Todays High:

 Todays Low:

 Y-days High:

 Y-days Low:

66.0°F 

+2°F

66.0°F

56% 

68.0°F 2:05am

66.0°F 12:28am

82.0°F 3:32pm

67.0°F 11:40pm

Temp & Humidity Graphs

  Wind 

Wind Speed

 1.0 mph

Gusting to

 8.0 mph

Wind from ESE

104°  ESE

Light air

 Avg speed:

 Wind Run:

 Peak Gust:

  1.0 mph 

6.0 miles

  14.0 mph 5:36am

  Almanac  

Moon age: 18 days,7 hours,36 minutes,86%

Waning Gibbous
86%
Illuminated
18 days in cycle

 Moonrise:

 Moonset:

 Sunrise:

 Sunset:

 Solar Noon:

10:18pm

10:04am

6:21am

7:54pm

1:07pm

2min 21s less daylight tomorrow 

  Solar Radiation 

(Current Solar)
  No Sun Light
(Todays High)
 None@12:00am

Rain

 Rain Today:

 Rain Rate (/hr):

 Rain last hour:

 Rain Yesterday:

 This Month:

 Season Total:

77 Days Since Last Rain Day

0.00 in

0.000 in

0.00 in

0.00 in

0.00 in

0.00 in

Updated Time

Updated: 8/19/19  6:12am

(Updated  sec ago)

Humidity & Barometer

 Humidity:

 Wetbulb:

 Dew Point:

 Barometer:

62% 

56.6°F 

50.7°F 

29.876 inHg 

 Baro Trend:  Steady 
Northern Calif
Preparedness
Fire 
Level 

    UV Index  

(Current UV)
0.0  None
(Todays High) @ 12:00am
0.0   None

National Weather Service Forecast

Today

Today: Sunny
Sunny
Tonight

Tonight: Clear
Clear
Tuesday

Tuesday: Sunny
Sunny
Tuesday
Night
Tuesday Night: Mostly Clear
Mostly Clear
Wednesday

Wednesday: Sunny
Sunny
Wednesday
Night
Wednesday Night: Mostly Clear
Mostly Clear
Hi 82 °F Lo 61 °F Hi 84 °F ↓ Lo 62 °F Hi 88 °F Lo 65 °F

Foresthill Probe 2 Stats  
Foresthill Probe 2: is located on Thomas Street
at 3000 feet. The main Foresthill Weather site
is located on Melody ln at the 2860 foot elevation

Calm
62.0°F
16.7°C
Temp Rate:
-0.5°F
Calm
Gusting to
1.0 mph
(Humidity)
67%
Wind from SSE
160°  SSE
Updated: 19/08/19 - 06:06:40
 Todays High: 64.0°F 00:00
 Todays Low: 62.0°F 06:05
 Rain Today: 0.00 in
 Season Total: 0.00 in

Foresthill Wx: Monthly,Yearly, Highs and Lows 

Foresthill  
This Weather Data is coming from the main Foresthill
Weather site located on Melody ln at the 2860 foot
elevation
Not Foresthill Probe 2
Weather Data
Month
  High
Month
  Low
Year
High
Year
Low
Temp 92.2°F
8/16/19
57.1°F
8/11/19
92.2°F
8/16/19
24.5°F
2/18/19
Humidity 79%
8/11/19
23%
8/4/19
100%
1/9/19
14%
4/22/19
Heat Index 90.4°F
8/16/19
60.4°F
8/10/19
90.8°F
7/27/19
30.1°F
2/22/19
Wind Chill 92.2°F
8/16/19
55.5°F
8/11/19
92.2°F
8/16/19
11.5°F
2/11/19
Wind Gust 20 mph
8/1/19
0 mph
8/1/19
48 mph
2/27/19
0 mph
1/1/19
Barometer 30.07 in
8/11/19
29.71 in
8/17/19
30.54 in
1/23/19
29.37 in
2/14/19
ET 0.21 in
8/1/19
0.00 in
8/1/19
0.27 in
6/9/19
0.00 in
1/1/19
Dew Point 62.4°F
8/5/19
41.4°F
8/11/19
66.8°F
6/17/19
7.7°F
1/1/19
Pacific Satellite US Radar Satellite Imagery Sacramento,CA.  (click to enlarge)
NWS Weather Forecast - Summary
Updated: Monday, August 19, 2019 - 4:45am PDT
Current Interstate Highway Conditions for I-80 & US-50

[I 80: IN THE SAN FRANCISCO BAY AREA - SOLANO CO]
the westbound connector to southbound i 880 /in oakland/ (alameda co) is closed from 11:00pm each night to 7:00am each morning sunday thru friday thru 8/23/19 - due to construction - a detour is available
the westbound connector to southbound sr 113 /in dixon/ (SOLANO CO) is closed from 10:00pm each night to 5:00am each morning monday thru friday thru 8/23/19 - due to construction - a detour is available

[I 80: IN THE NORTHERN CALIFORNIA AREA & SIERRA NEVADA]
no traffic restrictions are reported for this area.

[US 50: IN THE SACRAMENTO VALLEY & THE LAKE TAHOE BASIN]
  1-way controlled traffic at various locations from 7. 7 mi west to 6. 7 mi west of south lake tahoe /at johnson pass rd/ (EL DORADO CO) from 3:00pm each afternoon to 10:00am each morning monday thru friday thru 8/23/19 due to construction
NWS Weather Forecast: Today and Tonight (Updated: Mon, 19-Aug-2019 2:21am PDT)
Today

Today: Sunny
Sunny

Hi 82 °F
NWS forecast: Sunny, with a high near 82. South southwest wind 3 to 7 mph.
Tonight

Tonight: Clear
Clear

Lo 61 °F
NWS forecast: Clear, with a low around 61. South southeast wind 2 to 7 mph.
YR.NO 10 Day Weather forecast
Last update: 08/19/2019 @ 00:33
Next update: 08/19/2019 @ 13:00
Provided by: 22
      Temperature Precipitation Pressure Wind  
Today
08/19/2019
04:00 06:00 55°F   29.92 inHg Light air from east-northeast 3 mph
  06:00 12:00 54°F   29.91 inHg Light air from east-northeast 3 mph
  12:00 18:00 81°F   29.94 inHg Light breeze from southwest 6 mph
  18:00 00:00 79°F   29.90 inHg Light breeze from southwest 5 mph
    (Click to enlarge)
meteogram

    Forecast for next 9 days

      Temperature Precip Pressure Wind  
Tuesday
08/20/2019
00:00 06:00 61°F   29.94 inHg Light air from east 2 mph
  06:00 12:00 54°F   29.95 inHg Light breeze from east-northeast 4 mph
  12:00 18:00 81°F   29.98 inHg Light breeze from southwest 6 mph
  18:00 00:00 79°F   29.93 inHg Light breeze from southwest 5 mph
      Temperature Precip Pressure Wind  
Wednesday
08/21/2019
00:00 06:00 59°F   29.96 inHg Light air from east-northeast 2 mph
  06:00 12:00 54°F   29.93 inHg Light breeze from east-northeast 5 mph
  12:00 18:00 84°F   29.90 inHg Light breeze from west-southwest 6 mph
  17:00 23:00 84°F   29.83 inHg Light breeze from west-southwest 6 mph
  23:00 05:00 68°F   29.85 inHg Light breeze from east 4 mph
      Temperature Precip Pressure Wind  
Thursday
08/22/2019
05:00 11:00 59°F   29.79 inHg Light breeze from east-northeast 5 mph
  11:00 17:00 84°F   29.79 inHg Light breeze from west-southwest 6 mph
  17:00 23:00 88°F   29.72 inHg Light breeze from west 6 mph
  23:00 05:00 70°F   29.75 inHg Light air from east-northeast 1 mph
      Temperature Precip Pressure Wind  
Friday
08/23/2019
05:00 11:00 59°F   29.78 inHg Light breeze from east-northeast 6 mph
  11:00 17:00 88°F   29.82 inHg Light breeze from west-southwest 5 mph
  17:00 23:00 90°F   29.80 inHg Light breeze from southwest 6 mph
  23:00 05:00 70°F   29.87 inHg Light air from east-northeast 1 mph
      Temperature Precip Pressure Wind  
Saturday
08/24/2019
05:00 11:00 61°F   29.89 inHg Light breeze from east-northeast 4 mph
  11:00 17:00 86°F   29.95 inHg Light breeze from southwest 5 mph
  17:00 23:00 90°F   29.91 inHg Light breeze from west-southwest 6 mph
  23:00 05:00 70°F   29.96 inHg Light air from east-northeast 1 mph
      Temperature Precip Pressure Wind  
Sunday
08/25/2019
05:00 11:00 61°F   29.98 inHg Light breeze from east-northeast 6 mph
  11:00 17:00 90°F   29.98 inHg Light breeze from west-southwest 6 mph
  17:00 23:00 93°F   29.90 inHg Light breeze from west-southwest 6 mph
  23:00 05:00 73°F   29.93 inHg Light air from east-northeast 2 mph
      Temperature Precip Pressure Wind  
Monday
08/26/2019
05:00 11:00 63°F   29.88 inHg Light breeze from east-northeast 7 mph
  11:00 17:00 93°F   29.87 inHg Light breeze from west-southwest 4 mph
  17:00 23:00 95°F   29.77 inHg Light breeze from west-southwest 6 mph
  23:00 05:00 72°F   29.79 inHg Light breeze from east-northeast 4 mph
      Temperature Precip Pressure Wind  
Tuesday
08/27/2019
05:00 11:00 64°F   29.77 inHg Light breeze from east-northeast 6 mph
  11:00 17:00 97°F   29.78 inHg Light breeze from west-southwest 5 mph
  17:00 23:00 99°F   29.72 inHg Light breeze from west-southwest 6 mph
  23:00 05:00 70°F   29.77 inHg Light air from east-northeast 3 mph
      Temperature Precip Pressure Wind  
Wednesday
08/28/2019
05:00 11:00 64°F   29.78 inHg Light breeze from east-northeast 6 mph
  11:00 17:00 99°F   29.80 inHg Light breeze from west-southwest 4 mph

NOAA Local Storm Report
1 MILE EAST OF JULIFF   ( More )
DATE
08/14/2019
TIME
8:20 PM
COUNTY
BRAZORIA
STATE
TX
GEOGRAPHIC
29.45N 95.46W
SOURCE
BROADCAST MEDIA
LIGHTNING
from a lightning strike in the sterling lake subdivision.
How Close Are We To this Month's Temperature Record ?
Updated Monday, Aug 19, 2019- 6:05:00 AM

Current Temperature: 64.0°F

August's High: Temperature Record 97.8°F - Set on Sat, Aug 11, 2012 - 2:34:00 PM
We are currently 33.8°F Less than this Month's record High

August's Low: Temperature Record 50.6°F - Set on Thu, Aug 30, 2018 - 7:12:20 AM
We are currently 13.4°F More than this Month's record Low

Weather History For Monday, August 19, 2019


On this Day - In Weather History ...
Data courtesy of weatherforyou.com
powered by Cumulus v1.9.3 (1059)
Ambient Weather VWS v14.00
Top Contact Website Map Copyright © 2007 - 2019 Foresthillweather.com Never base important decisions on this or any weather information obtained from the Internet